Location: Sternwarte ZA, Rosenfeld-Brittheim
(48.2889°N, 8.6789°E)
Time: 06:17:21
(UTC+02:00)

X-37B - Pass Details

Date: 26 September 2021
Orbit: 385 x 389 km, 45.0° (Epoch: 17 October)

Event Time Altitude Azimuth Distance (km) Brightness Sun altitude
Exits shadow 04:45:15 14° 115° (ESE) 1,176 3.4 -25.2°
Drops below altitude 10° 04:46:03 10° 104° (ESE) 1,414 4.0 -25.0°
Sets 04:48:24 0° 88° (E) 2,272 5.5 -24.7°
